DateTime, Accumulation (mm), Intensity (mm/hr), Interval_Days, Interval_Hours, Interval_Minutes 
2020-01-01 00:01:13, 0, 0, 0, 0, 6
2020-01-01 00:07:08, 0, 0, 0, 0, 6
2020-01-01 00:13:02, 0, 0, 0, 0, 6
2020-01-01 00:19:11, 0, 0, 0, 0, 6
2020-01-01 00:25:03, 0, 0, 0, 0, 6
2020-01-01 00:30:59, 0, 0, 0, 0, 6
2020-01-01 00:36:54, 0, 0, 0, 0, 6
2020-01-01 00:42:50, 0, 0, 0, 0, 6
2020-01-01 00:48:45, 0, 0, 0, 0, 6
2020-01-01 00:54:40, 0, 0, 0, 0, 6
2020-01-01 01:00:36, 0, 0, 0, 0, 6
2020-01-01 01:06:31, 0, 0, 0, 0, 6
2020-01-01 01:12:26, 0, 0, 0, 0, 6
2020-01-01 01:18:35, 0, 0, 0, 0, 6
2020-01-01 01:24:27, 0, 0, 0, 0, 6
2020-01-01 01:30:23, 0, 0, 0, 0, 6
2020-01-01 01:36:18, 0, 0, 0, 0, 6
2020-01-01 01:42:13, 0, 0, 0, 0, 6
2020-01-01 01:48:08, 0, 0, 0, 0, 6
2020-01-01 01:54:03, 0, 0, 0, 0, 6
2020-01-01 01:59:58, 0, 0, 0, 0, 6
2020-01-01 02:05:54, 0, 0, 0, 0, 6
2020-01-01 02:11:49, 0, 0, 0, 0, 6
2020-01-01 02:17:58, 0, 0, 0, 0, 6
2020-01-01 02:23:51, 0, 0, 0, 0, 6
2020-01-01 02:29:46, 0, 0, 0, 0, 6
2020-01-01 02:35:42, 0, 0, 0, 0, 6
2020-01-01 02:41:37, 0, 0, 0, 0, 6
2020-01-01 02:47:32, 0, 0, 0, 0, 6
2020-01-01 02:53:26, 0, 0, 0, 0, 6
2020-01-01 02:59:21, 0, 0, 0, 0, 6
2020-01-01 03:05:16, 0, 0, 0, 0, 6
2020-01-01 03:11:11, 0, 0, 0, 0, 6
2020-01-01 03:17:06, 0, 0, 0, 0, 6
2020-01-01 03:23:14, 0, 0, 0, 0, 6
2020-01-01 03:29:08, 0, 0, 0, 0, 6
2020-01-01 03:35:03, 0, 0, 0, 0, 6
2020-01-01 03:40:58, 0, 0, 0, 0, 6
2020-01-01 03:46:54, 0, 0, 0, 0, 6
2020-01-01 03:52:49, 0, 0, 0, 0, 6
2020-01-01 03:58:44, 0, 0, 0, 0, 6
2020-01-01 04:04:39, 0, 0, 0, 0, 6
2020-01-01 04:10:33, 0, 0, 0, 0, 6
2020-01-01 04:16:29, 0, 0, 0, 0, 6
2020-01-01 04:22:37, 0, 0, 0, 0, 6
2020-01-01 04:28:30, 0, 0, 0, 0, 6
2020-01-01 04:34:27, 0, 0, 0, 0, 6
2020-01-01 04:40:22, 0, 0, 0, 0, 6
2020-01-01 04:46:17, 0, 0, 0, 0, 6
2020-01-01 04:52:13, 0, 0, 0, 0, 6
2020-01-01 04:58:08, 0, 0, 0, 0, 6
2020-01-01 05:04:04, 0, 0, 0, 0, 6
2020-01-01 05:09:59, 0, 0, 0, 0, 6
2020-01-01 05:15:54, 0, 0, 0, 0, 6
2020-01-01 05:22:04, 0, 0, 0, 0, 6
2020-01-01 05:27:57, 0, 0, 0, 0, 6
2020-01-01 05:33:52, 0, 0, 0, 0, 6
2020-01-01 05:39:48, 0, 0, 0, 0, 6
2020-01-01 05:45:43, 0, 0, 0, 0, 6
2020-01-01 05:51:38, 0, 0, 0, 0, 6
2020-01-01 05:57:33, 0, 0, 0, 0, 6
2020-01-01 06:03:28, 0, 0, 0, 0, 6
2020-01-01 06:09:24, 0, 0, 0, 0, 6
2020-01-01 06:15:19, 0, 0, 0, 0, 6
2020-01-01 06:21:27, 0, 0, 0, 0, 6
2020-01-01 06:27:20, 0, 0, 0, 0, 6
2020-01-01 06:33:15, 0, 0, 0, 0, 6
2020-01-01 06:39:10, 0, 0, 0, 0, 6
2020-01-01 06:45:05, 0, 0, 0, 0, 6
2020-01-01 06:51:01, 0, 0, 0, 0, 6
2020-01-01 06:56:56, 0, 0, 0, 0, 6
2020-01-01 07:02:52, 0, 0, 0, 0, 6
2020-01-01 07:08:46, 0, 0, 0, 0, 6
2020-01-01 07:14:42, 0, 0, 0, 0, 6
2020-01-01 07:20:51, 0, 0, 0, 0, 6
2020-01-01 07:26:44, 0, 0, 0, 0, 6
2020-01-01 07:32:39, 0, 0, 0, 0, 6
2020-01-01 07:38:35, 0, 0, 0, 0, 6
2020-01-01 07:44:31, 0, 0, 0, 0, 6
2020-01-01 07:50:26, 0, 0, 0, 0, 6
2020-01-01 07:56:21, 0, 0, 0, 0, 6
2020-01-01 08:02:17, 0, 0, 0, 0, 6
2020-01-01 08:08:13, 0, 0, 0, 0, 6
2020-01-01 08:14:08, 0, 0, 0, 0, 6
2020-01-01 08:20:16, 0, 0, 0, 0, 6
2020-01-01 08:26:10, 0, 0, 0, 0, 6
2020-01-01 08:32:05, 0, 0, 0, 0, 6
2020-01-01 08:38:00, 0, 0, 0, 0, 6
2020-01-01 08:43:55, 0, 0, 0, 0, 6
2020-01-01 08:49:49, 0, 0, 0, 0, 6
2020-01-01 08:55:43, 0, 0, 0, 0, 6
2020-01-01 09:01:36, 0, 0, 0, 0, 6
2020-01-01 09:07:30, 0, 0, 0, 0, 6
2020-01-01 09:13:24, 0, 0, 0, 0, 6
2020-01-01 09:19:30, 0, 0, 0, 0, 6
2020-01-01 09:25:23, 0, 0, 0, 0, 6
2020-01-01 09:31:19, 0, 0, 0, 0, 6
2020-01-01 09:37:14, 0, 0, 0, 0, 6
2020-01-01 09:43:09, 0, 0, 0, 0, 6
2020-01-01 09:49:02, 0, 0, 0, 0, 6
2020-01-01 09:54:57, 0, 0, 0, 0, 6
2020-01-01 10:00:50, 0, 0, 0, 0, 6
2020-01-01 10:06:43, 0, 0, 0, 0, 6
2020-01-01 10:12:35, 0, 0, 0, 0, 6
2020-01-01 10:18:42, 0, 0, 0, 0, 6
2020-01-01 10:24:35, 0, 0, 0, 0, 6
2020-01-01 10:30:31, 0, 0, 0, 0, 6
2020-01-01 10:36:26, 0, 0, 0, 0, 6
2020-01-01 10:42:21, 0, 0, 0, 0, 6
2020-01-01 10:48:16, 0, 0, 0, 0, 6
2020-01-01 10:54:11, 0, 0, 0, 0, 6
2020-01-01 11:00:07, 0, 0, 0, 0, 6
2020-01-01 11:06:03, 0, 0, 0, 0, 6
2020-01-01 11:11:58, 0, 0, 0, 0, 6
2020-01-01 11:18:06, 0, 0, 0, 0, 6
2020-01-01 11:23:59, 0, 0, 0, 0, 6
2020-01-01 11:29:54, 0, 0, 0, 0, 6
2020-01-01 11:35:49, 0, 0, 0, 0, 6
2020-01-01 11:41:45, 0, 0, 0, 0, 6
2020-01-01 11:47:41, 0, 0, 0, 0, 6
2020-01-01 11:53:37, 0, 0, 0, 0, 6
2020-01-01 11:59:33, 0, 0, 0, 0, 6
2020-01-01 12:05:29, 0, 0, 0, 0, 6
2020-01-01 12:11:24, 0, 0, 0, 0, 6
2020-01-01 12:17:20, 0, 0, 0, 0, 6
2020-01-01 12:23:28, 0, 0, 0, 0, 6
2020-01-01 12:29:21, 0, 0, 0, 0, 6
2020-01-01 12:35:16, 0, 0, 0, 0, 6
2020-01-01 12:41:12, 0, 0, 0, 0, 6
2020-01-01 12:47:07, 0, 0, 0, 0, 6
2020-01-01 12:53:04, 0, 0, 0, 0, 6
2020-01-01 12:58:58, 0, 0, 0, 0, 6
2020-01-01 13:04:53, 0, 0, 0, 0, 6
2020-01-01 13:10:48, 0, 0, 0, 0, 6
2020-01-01 13:16:44, 0, 0, 0, 0, 6
2020-01-01 13:22:53, 0, 0, 0, 0, 6
2020-01-01 13:28:47, 0, 0, 0, 0, 6
2020-01-01 13:34:42, 0, 0, 0, 0, 6
2020-01-01 13:40:37, 0, 0, 0, 0, 6
2020-01-01 13:46:32, 0, 0, 0, 0, 6
2020-01-01 13:52:28, 0, 0, 0, 0, 6
2020-01-01 13:58:23, 0, 0, 0, 0, 6
2020-01-01 14:04:18, 0, 0, 0, 0, 6
2020-01-01 14:10:13, 0, 0, 0, 0, 6
2020-01-01 14:16:08, 0, 0, 0, 0, 6
2020-01-01 14:22:16, 0, 0, 0, 0, 6
2020-01-01 14:28:09, 0, 0, 0, 0, 6
2020-01-01 14:34:05, 0, 0, 0, 0, 6
2020-01-01 14:40:00, 0, 0, 0, 0, 6
2020-01-01 14:45:55, 0, 0, 0, 0, 6
2020-01-01 14:51:50, 0, 0, 0, 0, 6
2020-01-01 14:57:45, 0, 0, 0, 0, 6
2020-01-01 15:03:40, 0, 0, 0, 0, 6
2020-01-01 15:09:36, 0, 0, 0, 0, 6
2020-01-01 15:15:31, 0, 0, 0, 0, 6
2020-01-01 15:21:39, 0, 0, 0, 0, 6
2020-01-01 15:27:31, 0, 0, 0, 0, 6
2020-01-01 15:33:26, 0, 0, 0, 0, 6
2020-01-01 15:39:20, 0, 0, 0, 0, 6
2020-01-01 15:45:13, 0, 0, 0, 0, 6
2020-01-01 15:51:05, 0, 0, 0, 0, 6
2020-01-01 15:56:59, 0, 0, 0, 0, 6
2020-01-01 16:02:51, 0, 0, 0, 0, 6
2020-01-01 16:08:44, 0, 0, 0, 0, 6
2020-01-01 16:14:38, 0, 0, 0, 0, 6
2020-01-01 16:20:45, 0, 0, 0, 0, 6
2020-01-01 16:26:38, 0, 0, 0, 0, 6
2020-01-01 16:32:33, 0, 0, 0, 0, 6
2020-01-01 16:38:28, 0, 0, 0, 0, 6
2020-01-01 16:44:23, 0, 0, 0, 0, 6
2020-01-01 16:50:18, 0, 0, 0, 0, 6
2020-01-01 16:56:14, 0, 0, 0, 0, 6
2020-01-01 17:02:09, 0, 0, 0, 0, 6
2020-01-01 17:08:04, 0, 0, 0, 0, 6
2020-01-01 17:13:59, 0, 0, 0, 0, 6
2020-01-01 17:20:07, 0, 0, 0, 0, 6
2020-01-01 17:26:01, 0, 0, 0, 0, 6
2020-01-01 17:31:56, 0, 0, 0, 0, 6
2020-01-01 17:37:51, 0, 0, 0, 0, 6
2020-01-01 17:43:46, 0, 0, 0, 0, 6
2020-01-01 17:49:41, 0, 0, 0, 0, 6
2020-01-01 17:55:36, 0, 0, 0, 0, 6
2020-01-01 18:01:32, 0, 0, 0, 0, 6
2020-01-01 18:07:28, 0, 0, 0, 0, 6
2020-01-01 18:13:24, 0, 0, 0, 0, 6
2020-01-01 18:19:33, 0, 0, 0, 0, 6
2020-01-01 18:25:26, 0, 0, 0, 0, 6
2020-01-01 18:31:21, 0, 0, 0, 0, 6
2020-01-01 18:37:16, 0, 0, 0, 0, 6
2020-01-01 18:43:09, 0, 0, 0, 0, 6
2020-01-01 18:49:02, 0, 0, 0, 0, 6
2020-01-01 18:54:56, 0, 0, 0, 0, 6
2020-01-01 19:00:48, 0, 0, 0, 0, 6
2020-01-01 19:06:41, 0, 0, 0, 0, 6
2020-01-01 19:12:33, 0, 0, 0, 0, 6
2020-01-01 19:18:39, 0, 0, 0, 0, 6
2020-01-01 19:24:32, 0, 0, 0, 0, 6
2020-01-01 19:30:27, 0, 0, 0, 0, 6
2020-01-01 19:36:22, 0, 0, 0, 0, 6
2020-01-01 19:42:18, 0, 0, 0, 0, 6
2020-01-01 19:48:13, 0, 0, 0, 0, 6
2020-01-01 19:54:08, 0, 0, 0, 0, 6
2020-01-01 20:00:03, 0, 0, 0, 0, 6
2020-01-01 20:05:58, 0, 0, 0, 0, 6
2020-01-01 20:11:53, 0, 0, 0, 0, 6
2020-01-01 20:18:02, 0, 0, 0, 0, 6
2020-01-01 20:23:55, 0, 0, 0, 0, 6
2020-01-01 20:29:51, 0, 0, 0, 0, 6
2020-01-01 20:35:46, 0, 0, 0, 0, 6
2020-01-01 20:41:41, 0, 0, 0, 0, 6
2020-01-01 20:47:37, 0, 0, 0, 0, 6
2020-01-01 20:53:32, 0, 0, 0, 0, 6
2020-01-01 20:59:26, 0, 0, 0, 0, 6
2020-01-01 21:05:20, 0, 0, 0, 0, 6
2020-01-01 21:11:16, 0, 0, 0, 0, 6
2020-01-01 21:17:12, 0, 0, 0, 0, 6
2020-01-01 21:23:20, 0, 0, 0, 0, 6
2020-01-01 21:29:13, 0, 0, 0, 0, 6
2020-01-01 21:35:08, 0, 0, 0, 0, 6
2020-01-01 21:41:03, 0, 0, 0, 0, 6
2020-01-01 21:46:58, 0, 0, 0, 0, 6
2020-01-01 21:52:54, 0, 0, 0, 0, 6
2020-01-01 21:58:49, 0, 0, 0, 0, 6
2020-01-01 22:04:45, 0, 0, 0, 0, 6
2020-01-01 22:10:40, 0, 0, 0, 0, 6
2020-01-01 22:16:35, 0, 0, 0, 0, 6
2020-01-01 22:22:43, 0, 0, 0, 0, 6
2020-01-01 22:28:36, 0, 0, 0, 0, 6
2020-01-01 22:34:31, 0, 0, 0, 0, 6
2020-01-01 22:40:27, 0, 0, 0, 0, 6
2020-01-01 22:46:21, 0, 0, 0, 0, 6
2020-01-01 22:52:17, 0, 0, 0, 0, 6
2020-01-01 22:58:12, 0, 0, 0, 0, 6
2020-01-01 23:04:08, 0, 0, 0, 0, 6
2020-01-01 23:10:03, 0, 0, 0, 0, 6
2020-01-01 23:15:59, 0, 0, 0, 0, 6
2020-01-01 23:22:07, 0, 0, 0, 0, 6
2020-01-01 23:28:01, 0, 0, 0, 0, 6
2020-01-01 23:33:56, 0, 0, 0, 0, 6
2020-01-01 23:39:52, 0, 0, 0, 0, 6
2020-01-01 23:45:47, 0, 0, 0, 0, 6
2020-01-01 23:51:42, 0, 0, 0, 0, 6
2020-01-02 00:03:33, 0, 0, 0, 0, 6
2020-01-02 00:09:29, 0, 0, 0, 0, 6
2020-01-02 00:15:24, 0, 0, 0, 0, 6
2020-01-02 00:21:32, 0, 0, 0, 0, 6
2020-01-02 00:27:25, 0, 0, 0, 0, 6
2020-01-02 00:33:20, 0, 0, 0, 0, 6
2020-01-02 00:39:14, 0, 0, 0, 0, 6
2020-01-02 00:45:10, 0, 0, 0, 0, 6
2020-01-02 00:51:05, 0, 0, 0, 0, 6
2020-01-02 00:57:00, 0, 0, 0, 0, 6
2020-01-02 01:02:55, 0, 0, 0, 0, 6
2020-01-02 01:08:50, 0, 0, 0, 0, 6
2020-01-02 01:14:45, 0, 0, 0, 0, 6
2020-01-02 01:20:54, 0, 0, 0, 0, 6
2020-01-02 01:26:47, 0, 0, 0, 0, 6
2020-01-02 01:32:41, 0, 0, 0, 0, 6
2020-01-02 01:38:36, 0, 0, 0, 0, 6
2020-01-02 01:44:32, 0, 0, 0, 0, 6
2020-01-02 01:50:27, 0, 0, 0, 0, 6
2020-01-02 01:56:23, 0, 0, 0, 0, 6
2020-01-02 02:02:18, 0, 0, 0, 0, 6
2020-01-02 02:08:13, 0, 0, 0, 0, 6
2020-01-02 02:14:09, 0, 0, 0, 0, 6
2020-01-02 02:20:17, 0, 0, 0, 0, 6
2020-01-02 02:26:10, 0, 0, 0, 0, 6
2020-01-02 02:32:06, 0, 0, 0, 0, 6
2020-01-02 02:38:00, 0, 0, 0, 0, 6
2020-01-02 02:43:56, 0, 0, 0, 0, 6
2020-01-02 02:49:50, 0, 0, 0, 0, 6
2020-01-02 02:55:45, 0, 0, 0, 0, 6
2020-01-02 03:01:42, 0, 0, 0, 0, 6
2020-01-02 03:07:37, 0, 0, 0, 0, 6
2020-01-02 03:13:32, 0, 0, 0, 0, 6
2020-01-02 03:19:41, 0, 0, 0, 0, 6
2020-01-02 03:25:35, 0, 0, 0, 0, 6
2020-01-02 03:31:31, 0, 0, 0, 0, 6
2020-01-02 03:37:26, 0, 0, 0, 0, 6
2020-01-02 03:43:21, 0, 0, 0, 0, 6
2020-01-02 03:49:17, 0, 0, 0, 0, 6
2020-01-02 03:55:12, 0, 0, 0, 0, 6
2020-01-02 04:01:08, 0, 0, 0, 0, 6
2020-01-02 04:07:03, 0, 0, 0, 0, 6
2020-01-02 04:12:58, 0, 0, 0, 0, 6
2020-01-02 04:19:07, 0, 0, 0, 0, 6
2020-01-02 04:25:00, 0, 0, 0, 0, 6
2020-01-02 04:30:55, 0, 0, 0, 0, 6
2020-01-02 04:36:50, 0, 0, 0, 0, 6
2020-01-02 04:42:45, 0, 0, 0, 0, 6
2020-01-02 04:48:40, 0, 0, 0, 0, 6
2020-01-02 04:54:34, 0, 0, 0, 0, 6
2020-01-02 05:00:30, 0, 0, 0, 0, 6
2020-01-02 05:06:25, 0, 0, 0, 0, 6
2020-01-02 05:12:20, 0, 0, 0, 0, 6
2020-01-02 05:18:29, 0, 0, 0, 0, 6
2020-01-02 05:24:21, 0, 0, 0, 0, 6
2020-01-02 05:30:16, 0, 0, 0, 0, 6
2020-01-02 05:36:11, 0, 0, 0, 0, 6
2020-01-02 05:42:07, 0, 0, 0, 0, 6
2020-01-02 05:48:02, 0, 0, 0, 0, 6
2020-01-02 05:53:56, 0, 0, 0, 0, 6
2020-01-02 05:59:52, 0, 0, 0, 0, 6
2020-01-02 06:05:47, 0, 0, 0, 0, 6
2020-01-02 06:11:43, 0, 0, 0, 0, 6
2020-01-02 06:17:38, 0, 0, 0, 0, 6
2020-01-02 06:23:46, 0, 0, 0, 0, 6
2020-01-02 06:29:39, 0, 0, 0, 0, 6
2020-01-02 06:35:34, 0, 0, 0, 0, 6
2020-01-02 06:41:29, 0, 0, 0, 0, 6
2020-01-02 06:47:24, 0, 0, 0, 0, 6
2020-01-02 06:53:19, 0, 0, 0, 0, 6
2020-01-02 06:59:14, 0, 0, 0, 0, 6
2020-01-02 07:05:09, 0, 0, 0, 0, 6
2020-01-02 07:11:04, 0, 0, 0, 0, 6
2020-01-02 07:16:59, 0, 0, 0, 0, 6
2020-01-02 07:23:07, 0, 0, 0, 0, 6
2020-01-02 07:29:00, 0, 0, 0, 0, 6
2020-01-02 07:34:56, 0, 0, 0, 0, 6
2020-01-02 07:40:51, 0, 0, 0, 0, 6
2020-01-02 07:46:47, 0, 0, 0, 0, 6
2020-01-02 07:52:42, 1.30929e-05, 0.000130929, 0, 0, 6
2020-01-02 07:58:37, 1.29928e-05, 0.000129928, 0, 0, 6
2020-01-02 08:04:32, 0, 0, 0, 0, 6
2020-01-02 08:10:27, 0, 0, 0, 0, 6
2020-01-02 08:16:22, 0, 0, 0, 0, 6
2020-01-02 08:22:30, 0, 0, 0, 0, 6
2020-01-02 08:28:23, 0, 0, 0, 0, 6
2020-01-02 08:34:17, 5.14094e-05, 0.000514094, 0, 0, 6
2020-01-02 08:40:12, 0.000213878, 0.00213878, 0, 0, 6
2020-01-02 08:46:07, 0.000181413, 0.00181413, 0, 0, 6
2020-01-02 08:52:03, 3.67657e-05, 0.000367657, 0, 0, 6
2020-01-02 08:57:58, 4.07652e-05, 0.000407652, 0, 0, 6
2020-01-02 09:03:53, 0.000173725, 0.00173725, 0, 0, 6
2020-01-02 09:09:48, 0.000319661, 0.00319661, 0, 0, 6
2020-01-02 09:15:44, 0.00104148, 0.0104148, 0, 0, 6
2020-01-02 09:21:52, 0.00294294, 0.0294294, 0, 0, 6
2020-01-02 09:27:45, 0.00472121, 0.0472121, 0, 0, 6
2020-01-02 09:33:40, 0.00777629, 0.0777629, 0, 0, 6
2020-01-02 09:39:36, 0.0100903, 0.100903, 0, 0, 6
2020-01-02 09:45:30, 0.00921509, 0.0921509, 0, 0, 6
2020-01-02 09:51:25, 0.0104474, 0.104474, 0, 0, 6
2020-01-02 09:57:20, 0.0124318, 0.124318, 0, 0, 6
2020-01-02 10:03:15, 0.0131525, 0.131525, 0, 0, 6
2020-01-02 10:09:11, 0.0127132, 0.127132, 0, 0, 6
2020-01-02 10:15:06, 0.0111258, 0.111258, 0, 0, 6
2020-01-02 10:21:14, 0.0114372, 0.114372, 0, 0, 6
2020-01-02 10:27:07, 0.0116206, 0.116206, 0, 0, 6
2020-01-02 10:33:03, 0.0114856, 0.114856, 0, 0, 6
2020-01-02 10:38:58, 0.00800636, 0.0800636, 0, 0, 6
2020-01-02 10:44:53, 0.00513144, 0.0513144, 0, 0, 6
2020-01-02 10:50:48, 0.00511356, 0.0511356, 0, 0, 6
2020-01-02 10:56:43, 0.0057046, 0.057046, 0, 0, 6
2020-01-02 11:02:39, 0.00735955, 0.0735955, 0, 0, 6
2020-01-02 11:08:35, 0.00699081, 0.0699081, 0, 0, 6
2020-01-02 11:14:29, 0.00414232, 0.0414232, 0, 0, 6
2020-01-02 11:20:38, 0.00402345, 0.0402345, 0, 0, 6
2020-01-02 11:26:30, 0.00392428, 0.0392428, 0, 0, 6
2020-01-02 11:32:24, 0.00208283, 0.0208283, 0, 0, 6
2020-01-02 11:38:19, 0.00165562, 0.0165562, 0, 0, 6
2020-01-02 11:44:13, 0.00105996, 0.0105996, 0, 0, 6
2020-01-02 11:50:08, 0.000562737, 0.00562737, 0, 0, 6
2020-01-02 11:56:03, 0.000242587, 0.00242587, 0, 0, 6
2020-01-02 12:01:59, 0, 0, 0, 0, 6
2020-01-02 12:07:54, 0, 0, 0, 0, 6
2020-01-02 12:13:49, 0, 0, 0, 0, 6
2020-01-02 12:19:58, 0, 0, 0, 0, 6
2020-01-02 12:25:52, 0, 0, 0, 0, 6
2020-01-02 12:31:47, 0, 0, 0, 0, 6
2020-01-02 12:37:41, 0.00019719, 0.0019719, 0, 0, 6
2020-01-02 12:43:37, 0.00148232, 0.0148232, 0, 0, 6
2020-01-02 12:49:32, 0.00121589, 0.0121589, 0, 0, 6
2020-01-02 12:55:28, 0.000178414, 0.00178414, 0, 0, 6
2020-01-02 13:01:23, 0.000227197, 0.00227197, 0, 0, 6
2020-01-02 13:07:18, 0.000280737, 0.00280737, 0, 0, 6
2020-01-02 13:13:14, 0.000394914, 0.00394914, 0, 0, 6
2020-01-02 13:19:24, 0.00037713, 0.0037713, 0, 0, 6
2020-01-02 13:25:17, 0.000281562, 0.00281562, 0, 0, 6
2020-01-02 13:31:12, 0.000805682, 0.00805682, 0, 0, 6
2020-01-02 13:37:08, 0.000807352, 0.00807352, 0, 0, 6
2020-01-02 13:43:03, 0.0042916, 0.042916, 0, 0, 6
2020-01-02 13:48:59, 0.0351716, 0.351716, 0, 0, 6
2020-01-02 13:54:56, 0.0625419, 0.625419, 0, 0, 6
2020-01-02 14:00:53, 0.0558407, 0.558407, 0, 0, 6
2020-01-02 14:06:49, 0.0530593, 0.530593, 0, 0, 6
2020-01-02 14:12:45, 0.104987, 1.049869, 0, 0, 6
2020-01-02 14:18:55, 0.19166, 1.916599, 0, 0, 6
2020-01-02 14:24:50, 0.216038, 2.160381, 0, 0, 6
2020-01-02 14:30:47, 0.192874, 1.928741, 0, 0, 6
2020-01-02 14:36:43, 0.162723, 1.627227, 0, 0, 6
2020-01-02 14:42:39, 0.165341, 1.653407, 0, 0, 6
2020-01-02 14:48:36, 0.16534, 1.653404, 0, 0, 6
2020-01-02 14:54:32, 0.155956, 1.559556, 0, 0, 6
2020-01-02 15:00:28, 0.150602, 1.506022, 0, 0, 6
2020-01-02 15:06:24, 0.131728, 1.317282, 0, 0, 6
2020-01-02 15:12:20, 0.115173, 1.151733, 0, 0, 6
2020-01-02 15:18:30, 0.117533, 1.175333, 0, 0, 6
2020-01-02 15:24:25, 0.111412, 1.114124, 0, 0, 6
2020-01-02 15:30:21, 0.102314, 1.023143, 0, 0, 6
2020-01-02 15:36:17, 0.0895889, 0.895889, 0, 0, 6
2020-01-02 15:42:14, 0.0816853, 0.816853, 0, 0, 6
2020-01-02 15:48:10, 0.0921095, 0.921095, 0, 0, 6
2020-01-02 15:54:06, 0.113332, 1.133318, 0, 0, 6
2020-01-02 16:00:02, 0.141017, 1.410174, 0, 0, 6
2020-01-02 16:05:59, 0.147253, 1.472525, 0, 0, 6
2020-01-02 16:11:54, 0.119213, 1.192126, 0, 0, 6
2020-01-02 16:18:03, 0.0923978, 0.923978, 0, 0, 6
2020-01-02 16:23:57, 0.0822479, 0.822479, 0, 0, 6
2020-01-02 16:29:53, 0.0934183, 0.934183, 0, 0, 6
2020-01-02 16:35:48, 0.0968363, 0.968363, 0, 0, 6
2020-01-02 16:41:44, 0.09354, 0.9354, 0, 0, 6
2020-01-02 16:47:39, 0.0648899, 0.648899, 0, 0, 6
2020-01-02 16:53:34, 0.0341933, 0.341933, 0, 0, 6
2020-01-02 16:59:29, 0.0215312, 0.215312, 0, 0, 6
2020-01-02 17:05:23, 0.0134145, 0.134145, 0, 0, 6
2020-01-02 17:11:19, 0.0161702, 0.161702, 0, 0, 6
2020-01-02 17:17:14, 0.022449, 0.22449, 0, 0, 6
2020-01-02 17:23:22, 0.0130412, 0.130412, 0, 0, 6
2020-01-02 17:29:16, 0.00249659, 0.0249659, 0, 0, 6
2020-01-02 17:35:10, 0.0067252, 0.067252, 0, 0, 6
2020-01-02 17:41:05, 0.00608373, 0.0608373, 0, 0, 6
2020-01-02 17:47:00, 0.00160923, 0.0160923, 0, 0, 6
2020-01-02 17:52:55, 0.00112045, 0.0112045, 0, 0, 6
2020-01-02 17:58:49, 0.000709259, 0.00709259, 0, 0, 6
2020-01-02 18:04:43, 0.000539703, 0.00539703, 0, 0, 6
2020-01-02 18:10:38, 0.000295437, 0.00295437, 0, 0, 6
2020-01-02 18:16:32, 0.000153996, 0.00153996, 0, 0, 6
2020-01-02 18:22:40, 0.000161942, 0.00161942, 0, 0, 6
2020-01-02 18:28:33, 0.000200005, 0.00200005, 0, 0, 6
2020-01-02 18:34:27, 0.000145867, 0.00145867, 0, 0, 6
2020-01-02 18:40:21, 3.87945e-05, 0.000387945, 0, 0, 6
2020-01-02 18:46:16, 1.67769e-05, 0.000167769, 0, 0, 6
2020-01-02 18:52:10, 1.45598e-05, 0.000145598, 0, 0, 6
2020-01-02 18:58:05, 1.43138e-05, 0.000143138, 0, 0, 6
2020-01-02 19:04:00, 0.00340076, 0.0340076, 0, 0, 6
2020-01-02 19:09:55, 0.0113526, 0.113526, 0, 0, 6
2020-01-02 19:15:49, 0.0115094, 0.115094, 0, 0, 6
2020-01-02 19:21:58, 0.00896796, 0.0896796, 0, 0, 6
2020-01-02 19:27:50, 0.0130261, 0.130261, 0, 0, 6
2020-01-02 19:33:45, 0.0216695, 0.216695, 0, 0, 6
2020-01-02 19:39:39, 0.0242939, 0.242939, 0, 0, 6
2020-01-02 19:45:33, 0.0148173, 0.148173, 0, 0, 6
2020-01-02 19:51:28, 0.00592905, 0.0592905, 0, 0, 6
2020-01-02 19:57:22, 0.00647448, 0.0647448, 0, 0, 6
2020-01-02 20:03:17, 0.00982531, 0.0982531, 0, 0, 6
2020-01-02 20:09:12, 0.00678106, 0.0678106, 0, 0, 6
2020-01-02 20:15:06, 0.00374157, 0.0374157, 0, 0, 6
2020-01-02 20:21:13, 0.00654082, 0.0654082, 0, 0, 6
2020-01-02 20:27:06, 0.00588532, 0.0588532, 0, 0, 6
2020-01-02 20:33:00, 0.00295798, 0.0295798, 0, 0, 6
2020-01-02 20:38:55, 0.00106408, 0.0106408, 0, 0, 6
2020-01-02 20:44:50, 0.00012113, 0.0012113, 0, 0, 6
2020-01-02 20:50:45, 0.000803887, 0.00803887, 0, 0, 6
2020-01-02 20:56:40, 0.00154096, 0.0154096, 0, 0, 6
2020-01-02 21:02:34, 0.00137587, 0.0137587, 0, 0, 6
2020-01-02 21:08:29, 0.000650743, 0.00650743, 0, 0, 6
2020-01-02 21:14:24, 0.000809963, 0.00809963, 0, 0, 6
2020-01-02 21:20:32, 0.00336318, 0.0336318, 0, 0, 6
2020-01-02 21:26:25, 0.00319268, 0.0319268, 0, 0, 6
2020-01-02 21:32:20, 0.00210147, 0.0210147, 0, 0, 6
2020-01-02 21:38:14, 0.00239035, 0.0239035, 0, 0, 6
2020-01-02 21:44:09, 0.0023571, 0.023571, 0, 0, 6
2020-01-02 21:50:04, 0.00130878, 0.0130878, 0, 0, 6
2020-01-02 21:55:58, 0.00103156, 0.0103156, 0, 0, 6
2020-01-02 22:01:53, 0.00338285, 0.0338285, 0, 0, 6
2020-01-02 22:07:48, 0.0067763, 0.067763, 0, 0, 6
2020-01-02 22:13:43, 0.00892619, 0.0892619, 0, 0, 6
2020-01-02 22:19:52, 0.00848726, 0.0848726, 0, 0, 6
2020-01-02 22:25:45, 0.00788432, 0.0788432, 0, 0, 6
2020-01-02 22:31:39, 0.0085874, 0.085874, 0, 0, 6
2020-01-02 22:37:34, 0.00793496, 0.0793496, 0, 0, 6
2020-01-02 22:43:29, 0.00572319, 0.0572319, 0, 0, 6
2020-01-02 22:49:24, 0.00373024, 0.0373024, 0, 0, 6
2020-01-02 22:55:19, 0.00271137, 0.0271137, 0, 0, 6
2020-01-02 23:01:14, 0.00320295, 0.0320295, 0, 0, 6
2020-01-02 23:07:09, 0.0048133, 0.048133, 0, 0, 6
2020-01-02 23:13:03, 0.00472578, 0.0472578, 0, 0, 6
2020-01-02 23:19:11, 0.00485601, 0.0485601, 0, 0, 6
2020-01-02 23:25:04, 0.0061591, 0.061591, 0, 0, 6
2020-01-02 23:30:59, 0.0105132, 0.105132, 0, 0, 6
2020-01-02 23:36:54, 0.0206436, 0.206436, 0, 0, 6
2020-01-02 23:42:49, 0.031402, 0.31402, 0, 0, 6
2020-01-02 23:48:45, 0.0394238, 0.394238, 0, 0, 6
2020-01-03 00:00:34, 0.0365662, 0.365662, 0, 0, 6
2020-01-03 00:06:30, 0.0294772, 0.294772, 0, 0, 6
2020-01-03 00:12:25, 0.0202271, 0.202271, 0, 0, 6
2020-01-03 00:18:35, 0.0124404, 0.124404, 0, 0, 6
2020-01-03 00:24:27, 0.0050585, 0.050585, 0, 0, 6
2020-01-03 00:30:23, 0.00152793, 0.0152793, 0, 0, 6
2020-01-03 00:36:17, 0.000263592, 0.00263592, 0, 0, 6
2020-01-03 00:42:12, 0, 0, 0, 0, 6
2020-01-03 00:48:07, 0, 0, 0, 0, 6
2020-01-03 00:54:02, 0, 0, 0, 0, 6
2020-01-03 00:59:57, 0, 0, 0, 0, 6
2020-01-03 01:05:52, 0, 0, 0, 0, 6
2020-01-03 01:11:47, 0.000113939, 0.00113939, 0, 0, 6
2020-01-03 01:17:43, 0.000114795, 0.00114795, 0, 0, 6
2020-01-03 01:23:50, 6.46624e-05, 0.000646624, 0, 0, 6
2020-01-03 01:29:43, 0, 0, 0, 0, 6
2020-01-03 01:35:38, 0, 0, 0, 0, 6
2020-01-03 01:41:33, 1.68653e-05, 0.000168653, 0, 0, 6
2020-01-03 01:47:28, 6.20207e-05, 0.000620207, 0, 0, 6
2020-01-03 01:53:23, 0.000105655, 0.00105655, 0, 0, 6
2020-01-03 01:59:18, 7.40956e-05, 0.000740956, 0, 0, 6
2020-01-03 02:05:12, 1.58386e-05, 0.000158386, 0, 0, 6
2020-01-03 02:11:07, 0, 0, 0, 0, 6
2020-01-03 02:17:02, 0, 0, 0, 0, 6
2020-01-03 02:23:10, 0, 0, 0, 0, 6
2020-01-03 02:29:04, 0, 0, 0, 0, 6
2020-01-03 02:34:59, 0, 0, 0, 0, 6
2020-01-03 02:40:54, 0, 0, 0, 0, 6
2020-01-03 02:46:48, 0, 0, 0, 0, 6
2020-01-03 02:52:44, 0, 0, 0, 0, 6
2020-01-03 02:58:39, 0, 0, 0, 0, 6
2020-01-03 03:04:35, 0, 0, 0, 0, 6
2020-01-03 03:10:30, 0, 0, 0, 0, 6
2020-01-03 03:16:26, 0, 0, 0, 0, 6
2020-01-03 03:22:33, 0, 0, 0, 0, 6
2020-01-03 03:28:27, 0, 0, 0, 0, 6
2020-01-03 03:34:22, 0, 0, 0, 0, 6
2020-01-03 03:40:16, 0, 0, 0, 0, 6
2020-01-03 03:46:11, 0, 0, 0, 0, 6
2020-01-03 03:52:06, 0, 0, 0, 0, 6
2020-01-03 03:58:00, 0, 0, 0, 0, 6
2020-01-03 04:03:54, 0, 0, 0, 0, 6
2020-01-03 04:09:47, 0, 0, 0, 0, 6
2020-01-03 04:15:41, 0, 0, 0, 0, 6
2020-01-03 04:21:47, 0, 0, 0, 0, 6
2020-01-03 04:27:42, 0, 0, 0, 0, 6
2020-01-03 04:33:36, 0, 0, 0, 0, 6
2020-01-03 04:39:31, 0, 0, 0, 0, 6
2020-01-03 04:45:26, 0, 0, 0, 0, 6
2020-01-03 04:51:21, 0, 0, 0, 0, 6
2020-01-03 04:57:15, 0, 0, 0, 0, 6
2020-01-03 05:03:11, 0, 0, 0, 0, 6
2020-01-03 05:09:06, 0, 0, 0, 0, 6
2020-01-03 05:15:01, 0, 0, 0, 0, 6
2020-01-03 05:21:10, 0, 0, 0, 0, 6
2020-01-03 05:27:03, 0, 0, 0, 0, 6
2020-01-03 05:32:58, 0, 0, 0, 0, 6
2020-01-03 05:38:53, 0, 0, 0, 0, 6
2020-01-03 05:44:48, 0, 0, 0, 0, 6
2020-01-03 05:50:44, 0, 0, 0, 0, 6
2020-01-03 05:56:38, 0, 0, 0, 0, 6
2020-01-03 06:02:33, 0, 0, 0, 0, 6
2020-01-03 06:08:27, 0, 0, 0, 0, 6
2020-01-03 06:14:22, 0, 0, 0, 0, 6
2020-01-03 06:20:29, 0, 0, 0, 0, 6
2020-01-03 06:26:23, 0, 0, 0, 0, 6
2020-01-03 06:32:17, 0, 0, 0, 0, 6
2020-01-03 06:38:12, 0, 0, 0, 0, 6
2020-01-03 06:44:06, 0, 0, 0, 0, 6
2020-01-03 06:50:01, 0, 0, 0, 0, 6
2020-01-03 06:55:56, 0, 0, 0, 0, 6
2020-01-03 07:01:51, 0, 0, 0, 0, 6
2020-01-03 07:07:47, 0, 0, 0, 0, 6
2020-01-03 07:13:42, 0, 0, 0, 0, 6
2020-01-03 07:19:49, 0, 0, 0, 0, 6
2020-01-03 07:25:42, 0, 0, 0, 0, 6
2020-01-03 07:31:37, 0, 0, 0, 0, 6
2020-01-03 07:37:32, 0, 0, 0, 0, 6
2020-01-03 07:43:27, 0, 0, 0, 0, 6
2020-01-03 07:49:22, 0, 0, 0, 0, 6
2020-01-03 07:55:17, 0, 0, 0, 0, 6
2020-01-03 08:01:13, 0, 0, 0, 0, 6
2020-01-03 08:07:08, 0, 0, 0, 0, 6
2020-01-03 08:13:04, 0, 0, 0, 0, 6
2020-01-03 08:19:11, 0, 0, 0, 0, 6
2020-01-03 08:25:05, 0, 0, 0, 0, 6
2020-01-03 08:31:00, 0, 0, 0, 0, 6
2020-01-03 08:36:54, 0, 0, 0, 0, 6
2020-01-03 09:04:42, 0, 0, 0, 0, 0
2020-01-03 09:10:35, 0, 0, 0, 0, 6
2020-01-03 09:16:30, 0, 0, 0, 0, 6
2020-01-03 09:22:38, 0, 0, 0, 0, 6
2020-01-03 09:28:31, 0, 0, 0, 0, 6
2020-01-03 09:34:27, 0, 0, 0, 0, 6
2020-01-03 09:40:23, 0, 0, 0, 0, 6
2020-01-03 09:46:19, 0, 0, 0, 0, 6
2020-01-03 09:52:14, 0, 0, 0, 0, 6
2020-01-03 09:58:09, 0, 0, 0, 0, 6
2020-01-03 10:04:04, 0, 0, 0, 0, 6
2020-01-03 10:09:59, 0, 0, 0, 0, 6
2020-01-03 10:15:54, 0, 0, 0, 0, 6
2020-01-03 10:22:03, 0, 0, 0, 0, 6
2020-01-03 10:27:57, 0, 0, 0, 0, 6
2020-01-03 10:33:51, 0, 0, 0, 0, 6